Wind_Speed
28 23 27 24 21 19 19 18 15 13 13 15 15 14 13 13 14 14 13 11 12 11 10 7 8 11 11 12 12 13 13 13 14 16 15 15 15 15 17 17 15 15 15
30 26 25 26 23 20 18 19 18 16 13 12 13 14 13 14 14 13 13 12 13 11 10 7 10 12 12 12 13 12 12 12 13 15 13 13 13 13 16 17 16 15 15
32 29 24 28 24 21 19 18 20 19 17 13 11 12 14 14 13 13 13 12 13 11 9 8 10 13 13 13 13 12 12 12 12 13 11 10 11 11 15 15 15 14 12
31 29 25 27 26 22 21 19 16 17 18 19 16 12 13 15 13 12 11 11 12 12 9 9 10 10 12 13 15 17 16 12 10 11 9 9 10 11 13 13 15 15 13
29 28 26 27 28 25 22 22 19 18 17 18 18 15 12 14 13 13 12 10 11 12 10 9 8 8 9 11 14 16 17 15 9 7 8 9 9 10 11 13 13 14 14
28 27 25 27 27 28 25 23 21 20 18 18 17 17 16 13 12 12 12 11 10 11 11 9 7 6 6 9 11 14 15 16 13 9 5 6 8 7 9 11 12 13 13
29 28 27 26 28 30 29 26 24 21 19 17 16 16 14 14 14 14 13 13 12 11 11 10 8 5 4 5 7 9 12 14 15 12 10 3 6 6 8 9 10 11 11
28 28 26 33 32 31 28 27 24 21 18 17 17 15 13 11 11 12 12 12 13 13 12 11 9 5 5 4 4 5 7 10 12 14 12 8 7 6 7 8 8 10 10
25 26 23 22 27 27 26 25 23 21 20 20 18 15 13 12 10 11 10 10 11 13 12 12 11 8 6 6 3 2 3 5 8 10 14 11 8 7 5 6 7 6 8
22 20 20 22 25 23 21 21 22 22 19 18 17 16 15 14 13 12 11 11 11 11 13 13 12 10 9 8 6 3 1 2 5 7 9 9 5 5 5 5 4 3 6
22 19 17 17 20 21 24 22 21 19 18 18 18 18 17 17 15 15 13 12 12 11 12 12 13 13 11 11 11 8 4 2 1 4 5 7 7 6 2 1 2 3 4
20 19 16 15 16 17 19 18 17 18 18 18 18 17 19 18 17 16 15 14 14 13 13 14 13 14 14 12 11 11 8 6 3 1 3 6 9 6 3 1 2 2 1
20 18 18 16 15 15 15 16 16 15 16 17 17 17 18 18 18 18 17 16 16 16 15 15 15 15 16 15 14 13 11 10 8 4 1 2 6 4 3 1 2 2 2
20 18 16 15 14 13 13 14 14 14 15 16 17 18 17 17 17 17 18 18 18 18 18 17 17 17 18 18 18 17 15 14 12 10 6 3 0 4 4 1 4 4 4
19 18 15 13 13 12 12 12 13 14 15 15 16 17 18 17 17 17 16 17 18 20 20 20 20 19 19 19 20 19 18 17 16 14 11 7 6 3 0 0 4 6 7
19 16 15 13 12 12 11 11 12 13 13 14 14 15 16 17 17 17 17 17 17 18 20 20 20 22 21 21 21 20 20 20 19 17 16 12 9 8 6 4 3 5 8
18 15 13 12 11 10 10 11 12 12 12 12 13 13 14 15 16 17 17 18 19 19 19 19 20 20 22 23 23 23 23 21 21 21 19 17 14 12 10 8 7 5 8
18 16 14 12 10 10 10 10 10 11 11 11 12 12 13 14 15 15 16 17 18 19 20 21 21 21 23 22 25 25 24 23 23 23 22 20 19 16 14 12 10 8 7
18 16 14 12 11 10 9 9 9 9 10 10 10 11 12 12 13 14 15 15 16 16 17 19 21 22 23 24 26 26 27 26 24 24 21 22 21 21 19 16 14 13 11
18 16 14 12 11 9 8 8 8 8 9 9 10 11 12 12 12 13 13 14 14 14 15 16 18 19 21 23 25 26 28 29 28 27 24 24 23 22 21 21 19 16 15
20 18 16 13 11 9 7 7 6 6 6 8 9 10 10 11 11 12 13 13 13 13 13 14 14 15 17 18 19 22 24 27 29 28 28 28 27 26 25 24 22 22 19
22 20 16 14 10 8 7 6 6 6 6 6 7 8 9 10 11 11 13 13 13 13 13 13 13 13 13 13 12 13 10 14 23 29 30 29 29 29 28 26 27 25 23
22 18 16 14 11 9 7 6 5 5 6 6 7 7 8 9 9 10 11 11 11 12 12 12 12 11 10 11 10 9 4 4 4 14 24 32 31 29 29 30 31 28 27
22 19 16 13 10 8 6 5 4 4 4 5 6 7 8 9 10 11 11 12 12 12 12 12 11 11 10 10 10 9 10 13 6 5 11 15 21 29 30 31 31 32 34
24 20 16 13 10 8 5 3 3 3 3 3 5 6 7 8 9 10 11 12 12 13 13 12 12 11 11 11 10 10 10 11 11 13 16 16 18 19 22 26 28 31 28
24 20 17 14 11 7 5 3 3 3 3 3 5 6 7 8 9 10 11 12 12 13 13 13 12 12 12 12 12 12 12 11 10 11 14 20 21 25 28 25 25 28 29
Wind_Direction
176 162 155 148 131 127 147 154 147 139 133 141 147 150 146 135 130 126 120 124 120 122 118 111 111 92 82 73 71 76 77 80 89 92 89 83 74 73 61 65 77 73 76
176 171 163 156 150 139 153 155 151 145 144 138 147 152 151 143 133 130 129 129 132 126 123 111 107 96 86 80 77 77 76 87 93 98 93 84 75 71 69 69 75 74 73
172 176 172 162 160 149 153 165 167 154 140 139 144 149 153 151 144 139 141 137 140 138 122 115 104 99 90 83 75 73 86 92 103 100 97 86 77 83 74 71 71 71 68
169 174 174 169 168 164 168 169 176 161 159 143 135 154 153 158 156 147 143 145 149 146 134 119 108 99 89 85 79 79 79 83 105 101 93 80 85 92 85 83 74 69 67
168 172 176 180 175 174 175 175 169 169 170 163 148 137 159 161 166 168 158 155 155 146 147 134 121 108 93 86 83 78 78 72 90 88 90 85 83 100 98 89 82 74 65
172 174 176 186 182 182 183 182 183 186 180 182 175 159 159 162 166 173 167 165 164 161 155 148 139 116 94 91 83 81 78 70 69 71 78 78 70 102 111 93 90 83 70
174 178 178 182 188 192 191 192 192 198 201 199 192 184 178 178 176 170 170 173 171 171 166 158 154 134 131 95 87 81 80 71 69 66 59 51 54 85 118 101 89 89 84
178 181 190 194 190 197 198 203 201 204 210 212 205 203 197 194 185 184 182 179 177 179 175 170 162 164 168 149 94 75 81 77 68 58 52 77 78 48 117 120 93 88 80
180 187 190 198 206 204 204 206 207 212 218 216 205 206 210 209 203 195 196 194 186 182 185 184 175 176 182 187 176 90 61 69 70 62 62 83 79 59 70 133 102 76 76
183 186 191 201 206 208 209 212 209 214 223 228 214 212 212 212 208 211 203 202 200 196 193 192 192 193 179 190 209 211 344 26 47 56 58 66 93 58 64 109 129 93 66
187 187 187 188 196 203 211 219 222 224 217 214 214 211 209 212 213 215 212 212 208 201 201 201 199 198 200 190 205 218 226 278 40 43 31 35 51 124 69 100 118 118 68
185 185 185 187 188 190 197 201 203 203 203 204 209 209 212 213 214 217 216 211 212 207 206 204 204 207 211 210 211 221 225 233 245 1 33 17 21 131 147 329 192 163 111
185 186 185 188 190 192 192 191 195 201 202 204 206 208 210 212 216 220 224 217 217 213 211 215 212 212 219 222 223 228 231 235 234 234 217 17 21 39 135 282 315 250 236
184 186 187 187 191 196 200 195 197 208 210 206 207 212 214 215 216 219 220 223 224 225 217 218 222 222 223 227 229 231 233 233 235 230 226 215 258 15 27 318 284 307 277
188 185 187 188 192 198 202 202 204 215 218 215 212 211 214 218 220 221 221 222 223 230 231 229 226 230 233 233 234 234 233 235 236 235 232 237 229 217 261 331 289 301 294
188 186 187 188 190 196 201 206 209 216 221 220 218 217 216 220 225 227 226 226 228 232 236 238 241 239 235 241 242 240 239 234 236 237 237 233 228 244 244 270 251 273 286
186 188 190 190 193 197 203 206 209 215 221 224 226 226 227 228 228 231 231 231 232 234 237 241 242 243 248 243 244 248 244 242 240 237 238 237 235 233 245 262 287 297 276
193 191 193 195 196 199 206 211 210 215 219 226 227 230 231 235 234 236 237 236 237 240 241 242 243 246 245 246 249 248 247 245 244 243 241 242 241 241 238 244 257 277 281
197 196 196 196 197 202 206 211 217 219 222 227 230 237 239 239 237 239 241 242 241 241 242 243 244 244 245 248 249 249 252 247 246 244 243 246 249 250 251 245 243 257 269
197 195 196 196 195 203 207 208 212 220 223 228 233 236 239 242 243 245 245 244 244 245 247 247 248 249 249 250 251 252 251 253 249 245 241 246 248 253 257 258 254 248 256
199 200 196 196 198 201 208 219 221 230 229 227 230 233 240 245 250 252 253 252 251 250 250 252 252 253 256 257 259 260 257 255 252 248 244 243 244 245 251 251 262 260 258
201 195 196 193 194 197 194 209 223 232 241 248 248 248 246 245 246 249 253 253 255 255 253 254 256 259 263 265 269 275 272 254 246 245 244 241 242 246 246 244 251 257 261
200 199 194 190 190 193 194 195 216 225 232 240 254 262 262 260 259 258 259 261 259 259 260 261 261 259 262 266 265 252 274 251 278 241 241 240 239 239 246 247 246 248 250
200 198 196 193 191 191 194 192 207 219 228 234 249 255 260 260 259 260 265 263 261 260 260 261 265 266 265 264 265 258 250 259 274 275 239 236 245 246 247 248 245 246 247
199 197 194 194 197 201 204 210 232 250 255 257 262 265 270 272 270 266 263 261 260 259 259 256 257 261 263 265 264 263 265 266 263 257 267 241 235 237 245 244 243 246 249
196 196 197 199 200 202 206 223 250 274 289 289 282 279 277 276 275 271 267 266 264 263 261 259 257 256 259 262 265 265 263 260 264 267 277 280 269 243 242 245 245 252 252
Height
1517 1521 1522 1524 1526 1528 1530 1532 1534 1536 1536 1537 1538 1540 1541 1543 1544 1546 1547 1548 1549 1549 1550 1550 1548 1549 1548 1549 1548 1547 1547 1546 1546 1546 1545 1545 1544 1543 1542 1542 1541 1540 1539
1515 1519 1522 1524 1526 1528 1530 1532 1534 1536 1537 1538 1539 1540 1542 1543 1544 1546 1548 1548 1550 1550 1551 1551 1550 1550 1550 1550 1550 1549 1548 1548 1548 1548 1547 1546 1546 1546 1545 1544 1543 1543 1543
1512 1517 1521 1522 1525 1527 1530 1532 1533 1535 1537 1539 1540 1541 1542 1545 1545 1546 1548 1549 1550 1552 1552 1552 1552 1552 1551 1552 1551 1551 1550 1550 1550 1549 1548 1548 1547 1548 1547 1547 1546 1546 1546
1509 1514 1518 1521 1524 1527 1529 1531 1534 1535 1537 1538 1540 1542 1543 1544 1546 1547 1548 1550 1551 1552 1554 1554 1554 1555 1554 1554 1553 1552 1552 1552 1552 1551 1551 1550 1549 1549 1549 1548 1547 1547 1547
1509 1513 1516 1520 1522 1525 1527 1530 1532 1535 1537 1538 1539 1542 1543 1544 1546 1547 1549 1551 1552 1552 1554 1556 1556 1556 1557 1556 1556 1555 1554 1554 1555 1555 1553 1553 1551 1550 1550 1549 1549 1549 1549
1509 1512 1514 1518 1521 1523 1525 1528 1530 1533 1535 1537 1539 1540 1542 1544 1545 1547 1549 1550 1552 1553 1554 1556 1557 1558 1557 1558 1558 1557 1557 1556 1556 1557 1557 1555 1554 1553 1553 1552 1549 1549 1551
1507 1510 1512 1514 1517 1520 1523 1525 1529 1532 1534 1536 1538 1539 1540 1542 1543 1546 1548 1549 1551 1553 1554 1555 1557 1558 1559 1559 1559 1559 1558 1558 1558 1558 1558 1559 1558 1556 1556 1555 1554 1551 1550
1505 1508 1511 1511 1512 1518 1522 1525 1528 1530 1533 1536 1537 1539 1540 1542 1544 1546 1548 1549 1550 1552 1554 1555 1556 1559 1559 1560 1560 1561 1560 1559 1559 1558 1558 1558 1560 1559 1558 1558 1558 1555 1554
1504 1507 1509 1513 1515 1519 1521 1525 1528 1530 1531 1534 1536 1538 1541 1542 1544 1545 1548 1549 1550 1551 1553 1555 1557 1557 1559 1561 1561 1561 1562 1561 1560 1560 1559 1560 1560 1561 1561 1560 1560 1560 1558
1503 1506 1508 1511 1514 1516 1519 1523 1526 1528 1529 1532 1535 1538 1539 1541 1542 1544 1547 1547 1549 1551 1552 1554 1555 1558 1557 1559 1561 1562 1563 1563 1563 1562 1561 1561 1561 1562 1562 1562 1562 1561 1561
1502 1504 1507 1509 1513 1514 1517 1519 1524 1526 1527 1528 1531 1534 1537 1538 1540 1542 1545 1547 1548 1550 1552 1553 1554 1555 1558 1558 1560 1560 1562 1563 1564 1564 1564 1562 1561 1562 1563 1563 1563 1562 1562
1500 1502 1506 1509 1512 1513 1515 1516 1521 1524 1525 1526 1529 1531 1535 1536 1537 1540 1542 1544 1547 1548 1550 1552 1553 1554 1556 1557 1558 1561 1561 1561 1563 1564 1564 1564 1562 1561 1563 1564 1564 1563 1562
1499 1502 1504 1506 1509 1512 1513 1515 1518 1522 1524 1525 1526 1528 1532 1534 1535 1537 1540 1542 1545 1545 1547 1550 1551 1552 1554 1556 1557 1559 1561 1562 1562 1563 1563 1565 1565 1563 1563 1563 1564 1565 1564
1496 1501 1503 1504 1508 1511 1514 1514 1516 1520 1523 1523 1524 1526 1529 1531 1533 1534 1537 1539 1541 1543 1544 1547 1550 1550 1551 1553 1555 1557 1558 1560 1561 1561 1562 1563 1564 1565 1564 1564 1564 1565 1565
1497 1498 1501 1503 1505 1510 1513 1514 1515 1518 1522 1521 1522 1523 1525 1528 1531 1532 1534 1536 1537 1539 1541 1544 1547 1548 1549 1550 1552 1553 1555 1557 1559 1560 1560 1562 1564 1563 1564 1563 1564 1565 1565
1495 1496 1499 1502 1504 1507 1510 1513 1513 1517 1519 1519 1520 1522 1523 1525 1528 1530 1531 1532 1534 1535 1537 1540 1542 1545 1546 1548 1549 1550 1552 1553 1555 1557 1558 1560 1561 1563 1563 1563 1562 1564 1565
1493 1496 1499 1500 1504 1507 1509 1510 1512 1514 1516 1518 1519 1520 1521 1522 1524 1526 1528 1529 1531 1532 1534 1536 1538 1540 1542 1543 1545 1547 1548 1550 1552 1553 1554 1556 1558 1559 1562 1563 1564 1562 1563
1492 1494 1497 1500 1502 1504 1507 1509 1509 1511 1513 1515 1516 1517 1518 1520 1521 1523 1524 1525 1526 1529 1530 1533 1535 1536 1537 1539 1540 1542 1544 1546 1548 1550 1552 1553 1554 1557 1557 1559 1562 1561 1561
1491 1493 1497 1499 1501 1504 1505 1507 1508 1509 1510 1512 1512 1515 1515 1517 1517 1519 1521 1522 1522 1525 1527 1528 1530 1531 1532 1533 1536 1537 1539 1540 1543 1545 1548 1550 1552 1553 1555 1556 1557 1560 1559
1492 1494 1497 1498 1499 1503 1504 1503 1506 1509 1508 1508 1510 1511 1513 1515 1515 1517 1519 1519 1520 1521 1523 1524 1526 1526 1527 1529 1530 1532 1532 1535 1537 1539 1543 1545 1548 1550 1551 1553 1554 1555 1557
1489 1493 1494 1496 1499 1500 1501 1503 1504 1506 1507 1508 1510 1509 1509 1511 1513 1513 1517 1516 1516 1517 1519 1522 1522 1522 1524 1525 1525 1526 1526 1529 1531 1532 1536 1539 1542 1545 1546 1549 1549 1552 1553
1491 1491 1493 1494 1497 1500 1499 1501 1504 1505 1506 1507 1507 1507 1507 1508 1510 1512 1514 1514 1514 1516 1516 1517 1519 1519 1520 1521 1521 1522 1523 1524 1523 1525 1528 1532 1536 1537 1540 1542 1545 1546 1548
1486 1488 1490 1492 1495 1498 1498 1498 1504 1504 1505 1504 1506 1505 1506 1505 1505 1509 1511 1511 1511 1513 1514 1514 1515 1516 1517 1517 1519 1521 1521 1518 1519 1519 1521 1524 1528 1531 1534 1535 1538 1539 1542
1482 1486 1489 1492 1494 1497 1498 1498 1502 1504 1503 1503 1504 1504 1505 1503 1504 1506 1507 1508 1509 1511 1511 1511 1512 1513 1513 1516 1517 1516 1517 1518 1518 1519 1519 1520 1522 1524 1526 1528 1530 1532 1534
1482 1484 1488 1491 1494 1496 1496 1497 1500 1501 1501 1500 1501 1502 1502 1501 1501 1502 1504 1507 1507 1509 1509 1509 1510 1510 1511 1513 1513 1513 1513 1515 1516 1517 1516 1517 1518 1519 1521 1521 1523 1525 1527
1480 1484 1487 1490 1492 1494 1494 1496 1498 1499 1499 1498 1499 1499 1499 1499 1499 1500 1503 1504 1504 1505 1506 1507 1507 1507 1508 1509 1510 1510 1511 1512 1512 1513 1512 1510 1512 1514 1514 1517 1518 1520 1522